{"data":{"norad_id":42075,"epoch":"2026-05-24T20:50:31.298784Z","epoch_age_seconds":87155,"freshness":"FRESH","line1":"1 42075U 17016A   26144.86841781 -.00000100  00000+0  00000+0 0  9993","line2":"2 42075   0.0130 272.1294 0000262  58.6201 212.3328  1.00271689 33666","mean_motion":1.00271689,"eccentricity":2.62e-5,"inclination_deg":0.013,"raan_deg":272.1294,"arg_perigee_deg":58.6201,"mean_anomaly_deg":212.3328,"bstar":0,"rev_number":3366,"period_min":1436.0982789469,"perigee_km":35785.517156815,"apogee_km":35787.72659018,"semimajor_km":42164.758873497,"source":"CELESTRAK","updated_at":"2026-05-25T13:38:14.041915Z"}}